Probability
0 0 0 0 0 0 0 0 0 0 0 0 3 3 32 32 42 39 45 61 58 61 65 77 77 77 84 87 90 94 94 97 97 90 84 87 77 81 87 84 90 90 87 81
0 0 0 0 0 0 0 0 0 0 0 0 3 6 13 32 39 42 42 52 55 58 77 81 81 81 87 90 94 94 90 94 94 97 97 94 84 77 84 81 84 87 81 84
0 0 0 0 0 0 0 0 0 0 3 0 0 6 13 26 39 39 48 61 61 58 81 87 81 84 84 87 87 84 97 97 90 90 87 90 90 87 81 87 87 87 87 84
0 0 0 0 0 0 0 0 0 0 0 0 0 0 6 16 32 55 58 68 65 61 77 87 94 90 84 90 87 97 100 97 97 90 90 84 87 81 84 90 90 90 90 84
0 0 0 0 0 0 0 0 0 0 0 0 0 0 3 13 19 32 58 55 65 74 77 87 90 94 87 90 90 90 94 94 97 94 94 97 84 81 77 87 90 94 87 84
0 0 0 0 0 0 0 0 0 0 0 0 0 0 3 3 19 23 35 45 58 65 77 87 90 94 94 87 87 87 90 90 94 94 90 94 94 94 84 87 84 84 87 84
0 0 0 0 0 0 0 0 0 0 0 0 0 0 3 13 16 19 26 39 45 48 77 87 87 84 90 90 90 87 87 87 87 87 87 87 84 87 87 87 87 84 71 71
0 0 0 0 0 0 0 0 0 0 0 0 0 0 6 16 19 23 39 32 35 45 65 81 81 81 87 87 87 87 87 87 87 87 87 81 81 81 81 84 84 84 74 71
0 0 0 0 0 0 0 0 0 0 0 0 0 3 6 13 19 29 32 32 35 35 55 65 71 77 84 77 84 87 87 87 87 84 84 81 77 81 81 81 81 77 74 65
0 0 0 0 0 0 0 0 0 0 0 0 0 0 3 13 23 29 39 39 48 48 58 58 71 74 77 77 81 77 84 84 84 77 77 81 81 77 77 74 71 71 68 61
0 0 0 0 0 0 0 0 0 0 0 0 0 0 3 19 32 39 39 45 55 55 55 61 65 71 71 71 74 77 81 84 77 77 77 77 77 74 68 68 65 58 61 61
0 0 0 0 0 0 0 0 0 0 0 0 0 0 6 26 32 42 39 52 65 68 65 61 61 68 71 71 74 77 77 77 77 74 77 77 71 68 68 65 61 55 52 52
0 0 0 0 0 0 0 0 0 0 0 0 0 0 10 29 29 42 48 65 71 74 77 74 74 77 81 84 81 81 71 74 74 77 74 68 68 68 61 58 52 52 52 48
0 0 0 0 0 0 0 0 0 0 0 0 0 3 10 29 29 39 55 68 68 81 84 81 81 81 77 77 77 71 68 71 71 77 71 68 58 55 52 48 48 48 52 48
0 0 0 0 0 0 0 0 0 0 0 0 0 0 10 29 32 42 58 68 58 71 81 84 81 81 77 74 71 74 74 74 71 65 58 52 48 45 45 45 45 42 39 39
0 0 0 0 0 0 0 0 0 0 0 0 0 3 13 26 32 45 55 55 55 61 74 81 81 77 77 74 74 77 74 71 68 55 52 48 42 39 39 39 39 29 29 29
0 0 0 0 0 0 0 0 0 0 0 0 0 6 19 26 39 45 61 68 71 65 68 74 77 68 71 71 71 74 68 61 58 45 42 45 39 35 35 32 29 23 23 23
0 0 0 0 0 0 0 0 0 0 3 3 6 16 16 32 45 52 61 68 61 61 65 77 77 68 68 68 74 71 61 58 48 42 39 35 35 32 32 29 26 19 19 23
0 0 0 0 0 0 0 0 3 0 0 10 13 16 16 35 42 45 52 65 61 65 68 68 74 74 68 74 68 68 58 45 39 39 39 32 29 32 26 23 19 19 16 16
0 0 0 0 0 0 0 0 10 3 6 16 19 26 35 32 32 39 55 68 65 65 68 71 74 71 71 71 68 61 55 48 39 39 32 32 29 23 23 19 16 16 16 16
0 0 0 0 0 0 3 10 10 3 10 32 29 32 39 35 32 48 55 68 68 77 74 77 77 77 71 65 65 61 55 45 42 32 29 26 23 23 16 16 16 16 16 13
0 0 0 0 0 3 10 10 13 26 45 42 39 42 45 42 45 58 65 61 61 71 71 77 77 74 68 65 61 58 48 45 29 29 23 19 16 16 16 16 16 16 16 13
0 3 0 0 3 13 19 23 45 61 58 48 48 48 52 52 39 45 52 55 65 68 68 68 74 71 68 61 61 52 42 35 23 19 19 16 16 16 16 16 16 16 16 13
0 3 6 6 16 16 29 29 39 52 52 61 58 55 58 61 48 55 55 58 61 65 68 65 58 61 65 52 48 45 35 29 26 19 16 16 16 16 13 13 13 13 13 13
6 3 6 13 23 29 32 32 42 42 45 52 52 52 55 55 58 55 61 58 58 58 58 61 55 55 61 48 39 32 29 19 13 10 10 10 13 10 10 10 6 10 10 10
3 6 10 10 32 32 39 39 29 42 48 52 48 52 42 48 55 52 55 58 55 52 45 45 52 48 48 45 32 26 19 19 13 13 10 10 6 6 6 6 6 3 6 6
Height
5922 5926 5929 5932 5935 5938 5940 5942 5943 5944 5944 5945 5945 5946 5945 5944 5944 5943 5942 5941 5940 5939 5937 5935 5934 5932 5930 5928 5926 5925 5923 5921 5920 5918 5917 5916 5915 5915 5915 5915 5914 5914 5914 5915
5919 5922 5926 5928 5931 5934 5937 5939 5941 5942 5942 5944 5944 5945 5945 5944 5944 5943 5942 5942 5940 5939 5938 5936 5935 5933 5931 5929 5927 5926 5924 5923 5921 5920 5918 5917 5916 5915 5915 5915 5915 5914 5914 5914
5915 5920 5922 5925 5928 5931 5934 5937 5939 5940 5941 5942 5943 5945 5944 5944 5944 5943 5942 5941 5940 5939 5938 5937 5935 5934 5932 5930 5928 5926 5925 5924 5922 5921 5919 5918 5916 5916 5915 5915 5915 5914 5914 5913
5909 5914 5918 5922 5925 5928 5931 5934 5936 5937 5939 5941 5942 5945 5944 5943 5943 5943 5942 5941 5940 5939 5938 5937 5935 5934 5932 5930 5929 5927 5925 5924 5923 5921 5920 5918 5917 5916 5915 5915 5914 5914 5913 5913
5905 5910 5914 5918 5922 5925 5927 5930 5932 5935 5937 5939 5940 5942 5944 5942 5942 5942 5941 5940 5939 5939 5938 5937 5935 5934 5932 5931 5929 5927 5925 5924 5923 5921 5920 5918 5917 5916 5915 5914 5914 5913 5912 5911
5900 5905 5909 5913 5917 5920 5923 5927 5929 5931 5934 5936 5937 5939 5941 5940 5940 5940 5940 5939 5938 5938 5937 5936 5935 5934 5932 5931 5929 5927 5926 5924 5923 5921 5920 5918 5917 5915 5914 5914 5913 5912 5911 5910
5895 5900 5904 5908 5912 5915 5919 5924 5927 5928 5930 5933 5934 5935 5937 5937 5938 5938 5938 5937 5937 5937 5936 5935 5934 5933 5931 5930 5929 5927 5925 5924 5922 5921 5919 5918 5916 5915 5914 5913 5912 5911 5910 5909
5891 5895 5900 5904 5908 5911 5916 5920 5924 5927 5929 5931 5929 5931 5934 5934 5935 5935 5935 5935 5935 5935 5934 5934 5933 5931 5930 5929 5927 5926 5924 5923 5921 5920 5918 5917 5915 5914 5913 5912 5910 5909 5908 5907
5886 5891 5895 5899 5903 5907 5910 5914 5919 5922 5924 5927 5927 5928 5929 5930 5931 5932 5933 5933 5933 5933 5933 5932 5931 5930 5929 5927 5926 5925 5923 5921 5920 5919 5917 5916 5914 5913 5911 5910 5909 5907 5906 5905
5880 5885 5889 5893 5897 5901 5906 5910 5913 5916 5919 5922 5924 5924 5926 5926 5928 5929 5929 5930 5930 5930 5930 5930 5929 5928 5927 5925 5924 5923 5921 5920 5918 5917 5915 5914 5912 5911 5910 5908 5907 5906 5904 5903
5874 5879 5883 5887 5891 5895 5900 5904 5907 5911 5914 5919 5922 5923 5921 5923 5924 5925 5926 5927 5927 5927 5927 5927 5926 5925 5924 5923 5922 5921 5919 5918 5916 5915 5914 5912 5911 5909 5908 5906 5905 5904 5902 5901
5867 5873 5877 5882 5886 5890 5894 5898 5902 5906 5909 5912 5917 5920 5916 5918 5920 5921 5922 5923 5923 5924 5924 5924 5923 5923 5922 5921 5920 5919 5917 5916 5914 5913 5911 5910 5909 5907 5905 5904 5902 5901 5900 5898
5861 5866 5871 5875 5880 5884 5887 5891 5896 5900 5903 5906 5911 5915 5912 5913 5915 5916 5918 5919 5920 5920 5921 5921 5920 5920 5919 5918 5917 5916 5915 5913 5912 5910 5909 5907 5906 5905 5903 5901 5899 5898 5897 5895
5855 5860 5866 5871 5874 5878 5882 5886 5890 5894 5897 5900 5904 5908 5907 5908 5910 5912 5913 5914 5915 5916 5917 5917 5917 5917 5916 5915 5914 5913 5912 5910 5909 5907 5906 5905 5903 5902 5900 5898 5896 5895 5893 5892
5848 5854 5859 5863 5867 5871 5876 5880 5884 5888 5892 5896 5898 5900 5902 5903 5905 5907 5908 5909 5911 5912 5913 5914 5914 5914 5913 5912 5911 5910 5909 5907 5906 5904 5903 5901 5899 5898 5896 5894 5893 5891 5889 5888
5841 5847 5852 5857 5861 5865 5869 5873 5877 5881 5885 5889 5892 5894 5896 5898 5899 5901 5903 5904 5906 5907 5908 5909 5910 5910 5909 5909 5908 5906 5905 5904 5902 5901 5900 5898 5896 5895 5893 5891 5890 5888 5886 5884
5835 5841 5847 5851 5855 5859 5862 5867 5871 5875 5879 5883 5886 5889 5890 5892 5894 5896 5897 5899 5901 5902 5904 5905 5905 5905 5905 5904 5903 5902 5901 5900 5898 5897 5896 5895 5893 5891 5889 5887 5886 5884 5882 5880
5830 5835 5840 5845 5849 5853 5859 5862 5866 5869 5873 5876 5880 5882 5884 5886 5889 5890 5892 5894 5895 5897 5898 5900 5900 5901 5900 5900 5899 5898 5897 5895 5894 5893 5892 5891 5889 5887 5885 5884 5882 5880 5878 5876
5824 5829 5834 5839 5843 5847 5851 5855 5859 5863 5867 5870 5873 5876 5878 5881 5883 5885 5886 5888 5890 5892 5893 5894 5895 5896 5895 5895 5895 5894 5893 5891 5890 5889 5888 5887 5885 5883 5882 5880 5878 5876 5874 5872
5817 5823 5829 5833 5838 5841 5846 5850 5853 5858 5860 5864 5867 5870 5873 5875 5878 5880 5881 5883 5885 5887 5888 5890 5890 5891 5891 5891 5890 5889 5889 5888 5886 5885 5884 5882 5881 5879 5877 5876 5874 5872 5870 5868
5811 5816 5821 5826 5831 5836 5839 5843 5848 5853 5856 5858 5861 5864 5867 5869 5872 5874 5876 5878 5880 5882 5883 5885 5885 5886 5886 5886 5886 5885 5884 5883 5882 5881 5880 5878 5877 5875 5873 5872 5870 5868 5867 5865
5806 5811 5816 5821 5826 5831 5833 5837 5842 5846 5849 5852 5855 5858 5861 5863 5866 5868 5870 5873 5875 5877 5878 5880 5881 5881 5882 5882 5881 5881 5880 5879 5878 5877 5876 5874 5873 5871 5869 5867 5866 5865 5863 5861
5800 5806 5810 5815 5821 5823 5827 5832 5835 5839 5842 5845 5849 5852 5855 5857 5860 5862 5865 5867 5869 5871 5873 5875 5876 5876 5877 5877 5877 5876 5876 5875 5874 5873 5871 5870 5869 5867 5865 5863 5862 5860 5859 5858
5794 5799 5804 5809 5813 5817 5821 5825 5829 5832 5836 5839 5842 5845 5849 5851 5854 5857 5859 5862 5864 5866 5868 5869 5870 5871 5872 5872 5872 5871 5871 5870 5869 5868 5867 5866 5864 5862 5861 5859 5857 5856 5855 5854
5788 5793 5797 5802 5807 5811 5816 5819 5823 5826 5830 5833 5836 5839 5842 5845 5848 5851 5854 5856 5858 5860 5862 5864 5865 5866 5866 5866 5866 5866 5866 5865 5864 5863 5862 5861 5860 5858 5857 5855 5853 5852 5851 5850
5782 5787 5792 5796 5801 5806 5810 5814 5817 5820 5824 5827 5830 5833 5836 5839 5842 5845 5848 5850 5852 5854 5856 5858 5859 5860 5860 5861 5861 5861 5860 5860 5859 5858 5857 5856 5855 5853 5852 5851 5849 5848 5847 5845
Wind_Speed
21 21 19 17 15 13 11 10 9 8 6 4 3 2 3 3 3 5 6 6 7 8 9 9 10 10 11 11 11 10 11 11 10 9 8 7 6 4 3 2 2 0 1 1
24 23 21 19 17 15 13 12 11 9 8 6 5 4 4 4 4 4 5 6 7 8 9 9 9 9 10 10 10 10 10 10 10 10 9 7 6 5 3 3 2 2 1 2
26 24 22 20 19 17 16 14 12 11 9 8 6 6 6 5 5 5 5 5 6 7 8 9 10 10 10 11 10 10 9 10 10 10 9 8 7 5 4 3 3 3 4 5
28 26 24 22 21 19 18 16 14 12 11 10 9 8 8 7 6 6 6 6 6 7 8 9 9 10 11 11 11 10 10 10 10 10 9 9 8 6 5 4 4 5 5 5
29 27 25 24 23 21 20 18 16 14 13 12 11 10 10 9 7 7 7 7 7 7 8 8 9 10 10 10 11 10 10 10 10 10 9 9 8 6 5 5 6 6 7 6
31 28 27 26 25 23 22 19 18 16 15 15 13 11 11 10 9 8 9 8 8 8 8 8 9 10 11 11 11 10 10 10 10 10 10 9 9 8 7 7 7 7 7 7
31 30 29 28 27 25 23 21 19 18 18 17 15 14 13 11 10 10 10 10 9 9 8 9 10 12 12 12 12 11 10 10 10 10 10 9 9 9 9 8 8 8 8 8
32 31 30 29 28 26 24 23 21 19 17 17 17 16 14 12 11 11 11 11 10 10 9 10 11 12 13 13 12 11 11 11 11 10 10 10 10 10 10 9 9 9 9 8
33 32 30 29 29 28 26 25 22 21 19 18 18 17 15 14 13 12 11 11 11 10 10 10 11 12 13 13 12 12 12 12 12 11 11 11 10 10 10 10 10 10 10 10
34 34 32 30 30 30 28 26 25 23 21 19 18 18 17 15 13 12 12 12 12 12 12 12 12 13 13 13 13 13 13 13 13 12 12 12 12 12 12 12 12 12 12 11
35 34 34 33 32 31 30 29 27 25 24 19 17 18 18 16 14 13 13 13 13 13 13 13 13 13 13 13 12 12 13 13 13 14 14 13 13 13 13 13 13 13 13 12
35 34 34 33 33 32 30 29 28 27 25 23 19 20 19 17 16 15 15 15 15 14 13 13 13 13 13 13 13 13 14 14 14 14 14 14 14 14 14 14 14 14 14 14
35 35 33 34 34 33 32 31 29 27 26 25 21 21 21 19 18 17 17 16 16 15 14 14 13 14 13 13 13 14 14 14 15 15 15 15 15 15 15 15 15 16 16 16
36 35 33 30 31 32 32 31 29 28 27 25 23 22 23 21 19 19 18 18 17 16 16 15 14 14 13 14 14 14 14 14 15 15 15 15 15 15 16 16 16 17 17 17
36 35 34 33 32 31 31 31 30 29 27 25 24 24 23 21 20 20 20 19 19 18 17 16 15 15 14 15 15 15 15 15 15 15 15 16 15 16 17 17 17 16 17 17
36 35 33 33 32 31 31 31 31 29 28 26 25 24 24 22 21 21 20 20 20 19 18 16 16 16 16 16 15 16 16 16 16 16 15 16 16 16 16 16 16 16 17 17
34 33 32 32 32 31 32 31 30 29 27 26 24 23 24 23 22 21 21 21 21 20 19 18 17 17 16 16 16 16 16 16 16 16 16 16 17 17 16 16 17 18 18 18
33 33 31 30 32 33 31 30 29 29 28 26 25 24 23 23 22 22 22 22 22 21 20 20 19 17 17 16 16 17 16 16 16 16 16 16 17 17 17 17 18 18 17 18
33 32 32 31 31 31 32 30 29 29 28 26 25 24 23 23 22 22 22 22 22 21 21 20 19 18 18 18 17 16 16 16 16 16 16 16 17 17 17 17 18 17 16 16
33 32 32 32 30 29 31 29 28 28 28 26 25 24 24 23 23 22 22 22 22 22 21 20 19 19 18 17 17 17 16 16 16 16 16 16 17 17 17 17 17 16 16 16
33 33 32 32 30 29 30 28 28 28 27 26 25 24 24 24 23 23 23 23 22 22 21 20 20 19 18 18 17 17 17 16 16 16 17 17 17 17 17 17 17 17 16 15
32 32 33 31 30 30 30 28 28 28 28 26 26 25 25 24 24 24 24 23 23 22 22 21 20 19 18 18 18 17 17 17 17 17 17 17 17 17 18 18 17 17 16 16
33 33 32 32 31 30 29 27 27 28 28 27 27 27 26 25 25 25 24 24 23 23 22 21 21 20 19 19 19 18 18 17 18 18 17 17 17 18 18 18 17 16 16 16
33 33 32 32 31 30 28 27 27 27 27 27 27 27 27 27 26 25 25 25 24 24 23 22 22 21 21 20 20 20 19 18 18 17 17 17 18 18 17 17 16 16 16 17
33 32 31 30 30 29 28 27 26 26 27 27 27 27 27 27 26 26 26 25 25 24 24 23 22 22 22 21 21 20 20 19 19 18 18 19 19 18 17 17 17 17 17 18
33 32 31 31 30 29 28 27 26 26 26 26 26 26 27 27 26 26 26 25 24 24 24 24 23 23 22 22 21 21 21 20 19 19 19 19 19 19 18 17 18 18 18 18
Wind_Direction
215 216 217 217 215 215 215 213 217 221 218 218 232 272 303 326 351 3 5 7 11 13 14 16 19 21 23 24 24 26 29 30 29 33 39 37 37 40 31 21 3 18 221 253
216 218 218 219 220 219 216 215 219 225 222 226 238 256 277 291 314 339 346 348 350 354 356 1 6 9 14 16 13 17 22 21 21 22 25 21 21 20 24 9 356 352 318 286
219 220 219 219 221 221 220 219 222 229 230 233 242 258 268 277 290 308 321 323 330 339 343 348 355 358 1 4 4 5 10 9 9 9 11 11 6 5 10 359 347 341 330 310
219 220 219 220 221 221 224 222 225 231 234 241 239 248 265 266 274 289 304 304 309 326 333 338 343 349 355 357 359 3 3 359 358 359 359 359 355 348 348 342 329 325 324 311
221 220 220 221 221 222 225 226 229 233 236 241 245 240 256 259 261 273 287 291 291 307 319 329 338 345 350 351 352 356 358 354 352 350 350 351 349 339 333 329 321 320 320 313
221 220 220 222 222 223 225 227 231 235 237 241 244 243 246 254 253 260 271 279 283 292 303 316 325 332 335 339 341 345 347 348 346 344 344 344 343 337 331 325 322 319 318 319
221 221 221 222 224 225 226 227 230 234 237 242 246 245 244 247 248 251 260 270 274 279 291 305 314 320 324 326 330 334 335 337 337 337 336 334 334 335 329 323 322 318 315 311
222 223 223 224 226 228 228 230 229 232 241 246 249 248 248 249 247 248 255 264 272 276 287 299 304 310 314 314 317 320 323 324 327 329 327 324 325 328 325 319 320 318 316 316
221 224 224 224 226 228 228 228 230 235 237 239 248 249 249 251 248 247 250 259 265 273 284 292 298 301 306 308 310 312 315 318 320 322 319 318 320 320 322 318 316 315 313 314
221 225 225 225 227 228 229 230 230 231 234 238 247 250 251 250 249 250 251 256 261 269 277 284 292 297 298 299 304 309 312 313 315 315 316 315 314 314 316 312 310 309 309 310
222 225 227 227 228 230 230 230 232 234 237 236 243 251 251 249 249 250 252 255 261 266 273 281 286 293 295 296 301 305 308 308 309 310 310 309 310 310 310 307 306 306 308 308
221 224 228 229 229 230 231 232 234 236 239 237 235 249 249 247 248 249 251 255 260 265 270 278 282 288 292 294 297 300 304 304 305 305 305 304 303 305 307 306 303 301 303 303
221 223 226 229 229 230 230 231 232 235 239 239 235 243 248 247 248 250 251 253 258 263 266 273 279 285 291 292 295 298 302 302 301 300 302 302 301 301 302 302 299 297 298 299
221 223 225 229 234 233 231 231 232 233 236 239 236 239 249 248 247 246 248 250 253 258 262 268 275 280 284 289 294 299 302 302 299 296 298 301 301 300 300 299 299 298 295 294
221 223 224 226 230 232 232 231 232 234 236 238 241 240 246 247 245 245 246 248 250 254 260 265 270 274 278 283 290 295 298 298 297 296 297 298 297 300 300 300 301 299 299 296
221 223 224 226 229 230 230 231 232 234 236 238 241 242 242 243 243 243 244 245 248 253 257 263 267 270 275 280 285 291 295 294 294 295 296 297 300 302 300 299 300 299 300 299
221 222 223 226 228 229 231 230 232 234 236 237 240 241 240 239 242 243 242 244 246 250 256 262 268 273 276 281 284 287 292 292 291 293 295 296 298 299 298 296 300 301 301 301
220 220 221 224 226 228 231 230 231 232 234 236 237 239 239 239 241 241 242 243 244 249 254 260 266 272 276 279 282 285 290 291 289 290 294 296 296 299 299 298 301 302 301 302
219 219 220 222 227 230 231 230 230 232 234 235 236 237 238 239 240 240 240 242 245 248 252 257 264 269 273 276 279 284 288 290 290 290 293 295 295 298 301 301 302 303 300 301
217 218 220 221 223 229 232 230 230 233 235 235 236 236 237 237 239 238 239 242 245 248 251 256 262 266 270 273 276 282 286 288 289 289 292 295 296 296 297 299 301 302 301 300
216 217 218 221 224 228 231 229 229 231 233 234 235 235 235 236 235 235 237 240 243 246 249 254 259 262 267 271 275 280 284 286 288 289 291 293 296 297 297 298 300 300 299 298
216 219 219 221 224 229 230 230 230 230 231 233 234 234 234 233 233 234 236 239 241 245 248 251 255 259 264 270 275 278 282 283 286 288 289 290 293 296 297 297 296 296 295 296
215 217 220 221 224 228 230 230 231 231 233 233 234 234 233 233 233 234 235 237 240 243 246 249 253 258 262 267 271 275 279 282 285 287 288 290 292 295 295 295 293 291 293 294
216 218 221 223 225 227 229 230 231 232 233 234 234 233 233 233 233 234 235 238 240 241 245 249 252 255 261 266 269 273 276 279 282 286 289 291 293 294 294 293 291 290 292 294
217 219 222 224 225 226 228 230 232 233 233 234 234 233 232 234 234 236 237 238 240 243 244 248 251 255 262 266 269 272 275 276 280 284 287 290 293 294 293 293 293 292 291 293
219 220 221 223 223 226 227 228 229 231 232 233 233 232 233 232 233 235 238 239 241 243 245 248 250 254 260 264 266 271 273 274 278 281 284 287 290 292 291 291 293 295 295 294